[[{"header":{"parameterUnit":"m.s-1","parameterCategory":1,"la1":30.2991,"la2":30.254,"lo1":-89.0895,"lo2":-89.0444,"dy":0.0017,"dx":0.0017,"nx":28,"ny":28,"refTime":"2025-09-07T21:00:00:Z","depth":0,"parameterNumber":2,"parameterNumberName":"U-component_of_WINDS"},"data":[0,0,0,0,0,0,0,0,0,0,0,0,0,0,0,0,0,0,0,0,0,0,0,0,0,0,0,0,0,0,0,0,0,0,0,0,0,0,0,0,0,0,0,0,0,0,0,0,0,0,0,0,0,0,0,0,0,0,-4.4514,-4.4514,0,-4.4526,-4.4526,-4.4526,-4.4414,-4.4411,-4.4408,-4.4405,-4.442,-4.4423,-4.4427,0,0,0,0,0,0,0,0,0,0,0,0,0,-4.44,-4.4402,-4.4514,-4.4514,-4.4514,-4.4526,-4.4526,-4.4526,-4.4414,-4.4411,-4.4407,-4.4403,-4.4419,-4.4423,-4.4427,0,0,0,0,0,0,0,0,0,0,0,0,0,-4.4434,-4.4403,-4.4514,-4.446,-4.4455,-4.4526,-4.4526,-4.4526,-4.4415,-4.4411,-4.4406,-4.4402,-4.4418,-4.4423,-4.4428,-4.4551,0,0,-4.4443,-4.4445,0,0,0,0,0,0,0,0,-4.4432,-4.4439,-4.4468,-4.4464,-4.4459,-4.4464,-4.4491,-4.4535,-4.4416,-4.4431,-4.4405,-4.4399,-4.4439,-4.4442,-4.4454,-4.4552,-4.4553,-4.4443,-4.4446,-4.4448,-4.445,0,0,0,0,0,0,0,-4.443,-4.4437,-4.4519,-4.4468,-4.4463,-4.4437,-4.4436,-4.4499,-4.4461,-4.4429,-4.4421,-4.4424,-4.4435,-4.445,-4.4454,-4.4553,-4.4443,-4.4447,-4.445,-4.4452,-4.4755,-4.476,0,0,0,0,0,0,-4.4435,-4.4436,-4.4518,-4.4519,-4.4434,-4.4442,-4.4442,-4.4467,-4.446,-4.4454,-4.4428,-4.4418,-4.4443,-4.4448,-4.4454,-4.4599,-4.4448,-4.4453,-4.4456,-4.475,-4.4757,-4.4762,0,0,0,0,0,0,-4.4433,-4.4443,-4.4518,-4.4476,-4.4483,-4.4449,-4.4478,-4.447,-4.4484,-4.4459,-4.4452,-4.4449,-4.444,-4.4447,-4.4528,-4.4598,-4.4455,-4.446,-4.4744,-4.4752,-4.4759,-4.4892,0,0,0,0,0,0,-4.443,-4.4443,-4.4488,-4.4477,-4.4486,-4.4591,-4.4482,-4.4473,-4.4492,-4.448,-4.4477,-4.4472,-4.4437,-4.4521,-4.4533,-4.4603,-4.4464,-4.4738,-4.4748,-4.4757,-4.4881,-4.4903,-4.4922,0,0,0,0,0,-4.4426,-4.4526,-4.4491,-4.4502,-4.4542,-4.4595,-4.46,-4.4557,-4.4498,-4.4545,-4.4529,-4.4472,-4.4589,-4.4531,-4.4543,-4.4615,-4.4733,-4.4745,-4.4756,-4.4872,-4.4898,-4.4921,0,0,0,0,0,0,-4.4547,-4.4523,-4.4485,-4.4584,-4.4592,-4.4576,-4.4633,-4.4587,-4.4613,-4.4601,-4.4547,-4.4547,-4.4638,-4.4634,-4.457,-4.4736,-4.4651,-4.4665,-4.4735,-4.476,-4.478,-4.4779,-4.4468,0,0,0,0,0,-4.4585,-4.4629,-4.4606,-4.4696,-4.4702,-4.4668,-4.4689,-4.4655,-4.4662,-4.4666,-4.4656,-4.4666,-4.4705,-4.4732,-4.4767,-4.488,-4.4878,-4.4936,-4.4956,-4.4973,-4.4986,-4.5048,-4.5073,-4.4799,-4.4799,-4.4799,0,0,-4.4664,-4.4656,-4.4688,-4.472,-4.4723,-4.4771,-4.4671,-4.4726,-4.4762,-4.4674,-4.4751,-4.4744,-4.4752,-4.4851,-4.4893,-4.485,-4.5062,-4.4987,-4.5001,-4.5005,-4.5062,-4.5088,-4.5111,-4.4807,-4.4806,-4.4805,0,0,-4.4833,-4.4831,-4.4906,-4.4911,-4.4916,-4.4893,-4.4911,-4.4903,-4.4895,-4.497,-4.4906,-4.4949,-4.5016,-4.5025,-4.5039,-4.5214,-4.5163,-4.5227,-4.5333,-4.5394,-4.5415,-4.5434,-4.5498,-4.5521,-4.524,-4.524,-4.524,0,-4.4931,-4.5,-4.4951,-4.5011,-4.5028,-4.495,-4.5026,-4.5034,-4.5051,-4.5065,-4.5016,-4.5101,-4.5101,-4.5201,-4.5244,-4.5257,-4.5278,-4.5227,-4.5416,-4.5434,-4.5451,-4.5512,-4.5536,-4.5248,-4.5247,-4.5246,-4.5246,0,-4.5121,-4.5171,-4.5231,-4.5248,-4.5272,-4.534,-4.5303,-4.5333,-4.5297,-4.528,-4.5359,-4.5356,-4.539,-4.5411,-4.5377,-4.5507,-4.548,-4.5425,-4.5339,-4.5486,-4.5542,-4.5564,-4.5259,-4.5256,-4.5254,-4.5252,0,0,-4.5366,-4.5356,-4.5379,-4.5387,-4.5388,-4.5426,-4.5491,-4.5523,-4.5551,-4.5566,-4.562,-4.5681,-4.563,-4.5645,-4.5612,-4.5665,-4.5806,-4.5603,-4.5602,-4.5642,-4.5951,-4.5993,-4.6021,-4.5772,-4.5776,-4.5779,-4.5951,0,-4.5531,-4.5641,-4.56,-4.5714,-4.576,-4.5687,-4.5744,-4.5752,-4.5738,-4.5776,-4.5761,-4.5805,-4.5733,-4.5743,-4.5792,-4.5778,-4.5867,-4.5765,-4.5824,-4.5827,-4.5825,-4.605,-4.6094,-4.6256,-4.5972,-4.5976,-4.5978,0,-4.5739,-4.5762,-4.588,-4.5875,-4.5892,-4.5944,-4.5971,-4.6008,-4.6016,-4.6002,-4.6021,-4.5976,-4.6042,-4.5956,-4.6047,-4.5979,-4.6001,-4.5998,-4.6003,-4.6007,-4.5912,-4.6061,-4.6306,-4.6331,-4.6012,-4.6009,-4.6007,0,-4.5907,-4.5968,-4.6047,-4.6055,-4.605,-4.6089,-4.6089,-4.6093,-4.6115,-4.6139,-4.6153,-4.6185,-4.6203,-4.623,-4.6196,-4.6136,-4.6293,-4.6203,-4.6285,-4.6286,-4.6321,-4.6319,-4.6574,-4.6334,-4.6334,-4.6333,-4.6333,0,-4.6097,-4.6173,-4.6122,-4.6171,-4.6254,-4.6207,-4.6291,-4.6283,-4.6287,-4.6334,-4.6274,-4.632,-4.6272,-4.6314,-4.6288,-4.6369,-4.6377,-4.6369,-4.6361,-4.6375,-4.6376,-4.6389,-4.6377,-4.634,-4.6338,-4.6337,-4.6336,0,-4.6299,-4.6268,-4.635,-4.6338,-4.6338,-4.64,-4.6391,-4.6436,-4.6418,-4.6479,-4.6491,-4.6463,-4.6509,-4.6478,-4.6525,-4.6508,-4.6614,-4.659,-4.6611,-4.6605,-4.6688,-4.6681,-4.696,-4.6995,-4.6732,-4.6735,-4.6737,0,-4.6422,-4.6479,-4.6474,-4.6501,-4.6504,-4.6548,-4.6571,-4.6527,-4.6553,-4.6568,-4.6613,-4.6654,-4.6684,-4.6763,-4.6748,-4.6784,-4.6762,-4.6857,-4.6767,-4.6779,-4.6765,-4.6762,-4.6768,-4.6876,-4.6879,-4.6881,-4.6883,0,-4.6645,-4.6627,-4.6661,-4.6691,-4.672,-4.6741,-4.6758,-4.6784,-4.674,-4.6773,-4.6819,-4.6843,-4.6892,-4.6934,-4.6965,-4.6966,-4.6919,-4.6912,-4.6933,-4.6947,-4.6958,-4.6955,-4.6661,-4.6906,-4.6903,-4.6902,-4.6901,-4.69,-4.6812,-4.6859,-4.6864,-4.6904,-4.6912,-4.693,-4.6973,-4.696,-4.6998,-4.7033,-4.7005,-4.7061,-4.707,-4.7106,-4.7114,-4.7158,-4.7119,-4.715,-4.7157,-4.7166,-4.7178,-4.695,-4.7164,-4.7163,-4.7162,-4.7162,-4.7161,0,-4.7032,-4.7032,-4.707,-4.7095,-4.7128,-4.7079,-4.7096,-4.7127,-4.7176,-4.7188,-4.722,-4.7275,-4.7316,-4.7305,-4.7342,-4.738,-4.736,-4.7392,-4.7389,-4.7391,-4.721,-4.7188,-4.7408,-4.7408,-4.7408,-4.7408,-4.7408,-4.7408,-4.7151,-4.7229,-4.7212,-4.7295,-4.7294,-4.7347,-4.7361,-4.7378,-4.7387,-4.7451,-4.7485,-4.7477,-4.748,-4.7517,-4.7554,-4.755,-4.7567,-4.7608,-4.7596,-4.7427,-4.7403,-4.738,-4.736,-4.7612,-4.7612,-4.7773,-4.7775,-4.7776]},{"header":{"parameterUnit":"m.s-1","parameterCategory":1,"la1":30.2991,"la2":30.254,"lo1":-89.0895,"lo2":-89.0444,"dy":0.0017,"dx":0.0017,"nx":28,"ny":28,"refTime":"2025-09-07T21:00:00:Z","depth":0,"parameterNumber":3,"parameterNumberName":"V-component_of_WINDS"},"data":[0,0,0,0,0,0,0,0,0,0,0,0,0,0,0,0,0,0,0,0,0,0,0,0,0,0,0,0,0,0,0,0,0,0,0,0,0,0,0,0,0,0,0,0,0,0,0,0,0,0,0,0,0,0,0,0,0,0,-0.0447,-0.0447,0,-0.0496,-0.0496,-0.0497,-0.0471,-0.047,-0.0469,-0.0468,-0.0521,-0.0524,-0.0526,0,0,0,0,0,0,0,0,0,0,0,0,0,-0.0333,-0.0335,-0.0447,-0.0447,-0.0448,-0.0496,-0.0496,-0.0497,-0.0472,-0.047,-0.0468,-0.0467,-0.052,-0.0523,-0.0527,0,0,0,0,0,0,0,0,0,0,0,0,0,-0.0382,-0.0336,-0.0447,-0.0441,-0.0441,-0.0496,-0.0496,-0.0497,-0.0472,-0.047,-0.0468,-0.0466,-0.0519,-0.0523,-0.0527,-0.0591,0,0,-0.0539,-0.0541,0,0,0,0,0,0,0,0,-0.038,-0.0387,-0.0441,-0.0441,-0.0441,-0.0475,-0.0476,-0.0529,-0.0473,-0.046,-0.0468,-0.0465,-0.0508,-0.0513,-0.0526,-0.0594,-0.0596,-0.0539,-0.0542,-0.0544,-0.0545,0,0,0,0,0,0,0,-0.0376,-0.0384,-0.0466,-0.0442,-0.0442,-0.0437,-0.0441,-0.0486,-0.0495,-0.0461,-0.0459,-0.0465,-0.0507,-0.0522,-0.0527,-0.0597,-0.0539,-0.0543,-0.0545,-0.0547,-0.072,-0.0722,0,0,0,0,0,0,-0.0373,-0.0382,-0.0465,-0.0468,-0.0405,-0.044,-0.0446,-0.0467,-0.0494,-0.0496,-0.0467,-0.0464,-0.0517,-0.0523,-0.0529,-0.0607,-0.0544,-0.0547,-0.055,-0.0718,-0.072,-0.0723,0,0,0,0,0,0,-0.037,-0.038,-0.0463,-0.0424,-0.0434,-0.0444,-0.0468,-0.0469,-0.0484,-0.0498,-0.05,-0.0481,-0.0515,-0.0523,-0.0576,-0.0609,-0.0549,-0.0553,-0.0715,-0.0719,-0.0722,-0.0764,0,0,0,0,0,0,-0.0367,-0.038,-0.0404,-0.0425,-0.0436,-0.0508,-0.047,-0.0471,-0.049,-0.0487,-0.0512,-0.0514,-0.0514,-0.057,-0.058,-0.0613,-0.0556,-0.0712,-0.0717,-0.0721,-0.076,-0.0768,-0.0775,0,0,0,0,0,-0.0363,-0.0414,-0.0405,-0.0415,-0.0467,-0.051,-0.0517,-0.0515,-0.0493,-0.0518,-0.0527,-0.0513,-0.0603,-0.0576,-0.0586,-0.0622,-0.071,-0.0715,-0.072,-0.0756,-0.0766,-0.0775,0,0,0,0,0,0,-0.0398,-0.0417,-0.0407,-0.0466,-0.0487,-0.0506,-0.0537,-0.0526,-0.0554,-0.055,-0.0548,-0.0554,-0.0609,-0.062,-0.0589,-0.0685,-0.0653,-0.0661,-0.0677,-0.0687,-0.0694,-0.0692,-0.0559,0,0,0,0,0,-0.0412,-0.0445,-0.046,-0.0511,-0.0521,-0.0527,-0.0546,-0.0543,-0.0565,-0.0574,-0.0587,-0.0609,-0.0642,-0.0664,-0.0696,-0.076,-0.0766,-0.0789,-0.0797,-0.0803,-0.0811,-0.0847,-0.0858,-0.0739,-0.0739,-0.0739,0,0,-0.0443,-0.0457,-0.0478,-0.0518,-0.0534,-0.0569,-0.0535,-0.0574,-0.06,-0.058,-0.0631,-0.0641,-0.0665,-0.0724,-0.0751,-0.0735,-0.0844,-0.081,-0.0815,-0.0819,-0.0853,-0.0865,-0.0875,-0.0742,-0.0742,-0.0741,0,0,-0.0517,-0.053,-0.0575,-0.059,-0.0614,-0.0617,-0.0628,-0.0648,-0.0654,-0.0704,-0.069,-0.0721,-0.0778,-0.0797,-0.0814,-0.0893,-0.0882,-0.0903,-0.0946,-0.0981,-0.0991,-0.0999,-0.103,-0.1041,-0.0909,-0.091,-0.091,0,-0.0553,-0.0605,-0.0599,-0.0639,-0.0658,-0.0638,-0.0684,-0.07,-0.0733,-0.0747,-0.0728,-0.0799,-0.0814,-0.0878,-0.0897,-0.091,-0.0924,-0.0902,-0.0989,-0.0998,-0.1006,-0.1035,-0.1046,-0.0912,-0.0912,-0.0912,-0.0911,0,-0.0649,-0.0685,-0.0718,-0.0749,-0.0771,-0.0813,-0.0815,-0.0838,-0.0832,-0.0837,-0.0889,-0.0906,-0.0941,-0.0955,-0.095,-0.1018,-0.1008,-0.0989,-0.0958,-0.102,-0.1047,-0.1058,-0.0916,-0.0915,-0.0914,-0.0914,0,0,-0.075,-0.0776,-0.0788,-0.0803,-0.0826,-0.0855,-0.0896,-0.0929,-0.0949,-0.0971,-0.1008,-0.1055,-0.1038,-0.1057,-0.1054,-0.1084,-0.1149,-0.1062,-0.1063,-0.108,-0.1227,-0.1244,-0.1257,-0.114,-0.1142,-0.1143,-0.1226,0,-0.0828,-0.09,-0.0896,-0.0965,-0.0999,-0.098,-0.1016,-0.1035,-0.1041,-0.1071,-0.1077,-0.1112,-0.1085,-0.1097,-0.1126,-0.1135,-0.1179,-0.1128,-0.1176,-0.1178,-0.1174,-0.1271,-0.1288,-0.1366,-0.1237,-0.1238,-0.124,0,-0.093,-0.0955,-0.1027,-0.1045,-0.1059,-0.1092,-0.1122,-0.1151,-0.1171,-0.1173,-0.1194,-0.1185,-0.1228,-0.1192,-0.1252,-0.1218,-0.1237,-0.1244,-0.1247,-0.1254,-0.1215,-0.1284,-0.139,-0.1403,-0.1256,-0.1255,-0.1254,0,-0.1,-0.1051,-0.1101,-0.1114,-0.1136,-0.116,-0.117,-0.1188,-0.1209,-0.1234,-0.1248,-0.1278,-0.1296,-0.132,-0.1321,-0.1294,-0.1382,-0.1346,-0.1387,-0.1387,-0.141,-0.1409,-0.1524,-0.1416,-0.1416,-0.1415,-0.1415,0,-0.109,-0.1135,-0.1133,-0.1165,-0.1215,-0.1209,-0.1259,-0.1267,-0.1283,-0.1316,-0.1301,-0.1332,-0.1329,-0.1361,-0.1361,-0.1412,-0.1419,-0.1423,-0.1424,-0.1427,-0.1427,-0.1442,-0.1438,-0.1419,-0.1418,-0.1417,-0.1417,0,-0.1178,-0.1178,-0.1232,-0.1248,-0.1253,-0.129,-0.1303,-0.1333,-0.1336,-0.1379,-0.1388,-0.1394,-0.143,-0.1432,-0.1474,-0.1474,-0.1537,-0.1529,-0.153,-0.153,-0.1572,-0.157,-0.1704,-0.1722,-0.1599,-0.16,-0.1601,0,-0.1238,-0.1272,-0.1291,-0.1312,-0.1323,-0.1356,-0.1377,-0.1371,-0.1393,-0.1418,-0.1446,-0.148,-0.1509,-0.1568,-0.1577,-0.1609,-0.1604,-0.1649,-0.1609,-0.1612,-0.1609,-0.1608,-0.1613,-0.1658,-0.1659,-0.166,-0.1661,0,-0.1344,-0.1342,-0.1371,-0.14,-0.1424,-0.1447,-0.1468,-0.1486,-0.1483,-0.1508,-0.1545,-0.1567,-0.1609,-0.1645,-0.1676,-0.1687,-0.1675,-0.1673,-0.1685,-0.1691,-0.1691,-0.1694,-0.1555,-0.1671,-0.167,-0.1669,-0.1669,-0.1668,-0.1422,-0.1452,-0.147,-0.1503,-0.1518,-0.1538,-0.1567,-0.1573,-0.1603,-0.1637,-0.1631,-0.1673,-0.1693,-0.1733,-0.1747,-0.178,-0.1765,-0.1781,-0.1786,-0.1791,-0.1797,-0.1682,-0.1785,-0.1785,-0.1785,-0.1785,-0.1784,0,-0.1529,-0.1539,-0.157,-0.16,-0.1626,-0.1608,-0.1631,-0.1655,-0.1691,-0.171,-0.1737,-0.178,-0.1814,-0.1824,-0.1857,-0.1882,-0.1877,-0.1891,-0.1891,-0.1895,-0.1808,-0.1796,-0.1895,-0.1895,-0.1895,-0.1895,-0.1895,-0.1895,-0.1589,-0.164,-0.164,-0.1698,-0.1707,-0.1748,-0.1762,-0.1781,-0.1796,-0.1844,-0.1872,-0.1877,-0.1893,-0.1927,-0.1958,-0.196,-0.1975,-0.1992,-0.1992,-0.1911,-0.1901,-0.189,-0.1879,-0.1994,-0.1994,-0.2077,-0.2078,-0.2078]}]]